2024/01/26 00:00:00,227.0,-1.2
2024/01/26 00:10:00,226.9,-1.0
2024/01/26 00:20:00,226.8,-0.7
2024/01/26 00:30:00,226.9,-0.8
2024/01/26 00:40:00,226.9,-1.6
2024/01/26 00:50:00,226.6,-1.5
2024/01/26 01:00:00,226.7,-1.6
2024/01/26 01:10:00,226.8,-1.6
2024/01/26 01:20:00,226.7,-1.7
2024/01/26 01:30:00,226.7,-1.6
2024/01/26 01:40:00,226.7,-1.5
2024/01/26 01:50:00,226.6,-1.0
2024/01/26 02:00:00,226.6,-1.2
2024/01/26 02:10:00,226.6,-1.1
2024/01/26 02:20:00,226.6,-1.0
2024/01/26 02:30:00,226.5,-0.9
2024/01/26 02:40:00,226.4,-1.1
2024/01/26 02:50:00,226.3,-1.0
2024/01/26 03:00:00,226.3,-1.0
2024/01/26 03:10:00,226.3,-1.1
2024/01/26 03:20:00,226.4,-1.0
2024/01/26 03:30:00,226.3,-1.2
2024/01/26 03:40:00,226.3,-1.1
2024/01/26 03:50:00,226.4,-1.1
2024/01/26 04:00:00,226.3,-1.1
2024/01/26 04:10:00,226.3,-1.0
2024/01/26 04:20:00,226.2,-1.1
2024/01/26 04:30:00,226.1,-1.2
2024/01/26 04:40:00,226.1,-1.2
2024/01/26 04:50:00,225.9,-1.0
2024/01/26 05:00:00,226.0,-1.1
2024/01/26 05:10:00,225.9,-1.2
2024/01/26 05:20:00,186.2,-1.9
2024/01/26 05:30:00,---,-1.9
2024/01/26 05:40:00,170.3,-1.3
2024/01/26 05:50:00,146.6,-1.2
2024/01/26 06:00:00,186.0,-1.4
2024/01/26 06:10:00,---,-1.0
2024/01/26 06:20:00,201.9,-1.0
2024/01/26 06:30:00,186.0,-1.1
2024/01/26 06:40:00,170.1,-1.2
2024/01/26 06:50:00,146.1,-1.1
2024/01/26 07:00:00,146.2,-1.2
2024/01/26 07:10:00,145.9,-0.9
2024/01/26 07:20:00,145.7,-1.1
2024/01/26 07:30:00,146.0,-1.2
2024/01/26 07:40:00,145.8,-1.1
2024/01/26 07:50:00,145.4,-0.5
2024/01/26 08:00:00,145.6,-0.8
2024/01/26 08:10:00,145.6,-0.4
2024/01/26 08:20:00,145.5,-0.1
2024/01/26 08:30:00,145.4, 0.3
2024/01/26 08:40:00,145.2, 0.4
2024/01/26 08:50:00,145.3, 0.3
2024/01/26 09:00:00,145.2, 0.6
2024/01/26 09:10:00,145.2, 0.9
2024/01/26 09:20:00,145.6, 1.2
2024/01/26 09:30:00,145.4, 1.1
2024/01/26 09:40:00,145.3, 1.4
2024/01/26 09:50:00,145.3, 0.8
2024/01/26 10:00:00,145.1, 1.9
2024/01/26 10:10:00,144.7, 3.1
2024/01/26 10:20:00,144.6, 3.2
2024/01/26 10:30:00,144.2, 3.9
2024/01/26 10:40:00,104.2, 3.5
2024/01/26 10:50:00,96.2, 3.5
2024/01/26 11:00:00,64.1, 4.6
2024/01/26 11:10:00,63.9, 4.8
2024/01/26 11:20:00,63.9, 3.4
2024/01/26 11:30:00,63.7, 4.8
2024/01/26 11:40:00,63.5, 3.5
2024/01/26 11:50:00,63.8, 2.8
2024/01/26 12:00:00,63.7, 3.2
2024/01/26 12:10:00,63.3, 3.9
2024/01/26 12:20:00,63.4, 3.3
2024/01/26 12:30:00,63.4, 3.0
2024/01/26 12:40:00,63.2, 3.5
2024/01/26 12:50:00,63.1, 2.9
2024/01/26 13:00:00,63.0, 2.4
2024/01/26 13:10:00,62.9, 2.4
2024/01/26 13:20:00,62.9, 2.5
2024/01/26 13:30:00,63.2, 2.6
2024/01/26 13:40:00,63.2, 5.5
2024/01/26 13:50:00,62.8, 2.6
2024/01/26 14:00:00,62.6, 3.2
2024/01/26 14:10:00,62.3, 1.8
2024/01/26 14:20:00,62.2, 1.4
